Theta_e
293 293 293 292 291 292 292 292 292 292 293 293 291 291 291 291 292 291 292 292 292 292 292 292 292 291 291 291 291 291 291 291 291 291 292 292 292 293 293 293 293 293 293 294
291 293 293 293 293 292 293 293 292 292 293 292 291 291 290 290 291 291 291 291 291 291 291 292 292 292 292 291 290 290 290 290 290 290 290 290 291 291 291 292 292 292 293 294
290 293 293 292 292 293 293 293 292 292 291 291 289 289 290 290 292 291 290 290 291 291 291 291 291 290 290 290 289 289 289 289 289 289 289 289 289 289 290 291 291 291 292 292
290 291 292 292 292 293 293 292 292 291 290 289 289 286 289 291 292 291 291 290 290 290 290 290 289 289 289 288 287 287 287 287 287 287 287 287 287 287 288 288 289 290 290 291
290 292 292 291 292 292 293 292 291 290 289 283 286 285 288 289 291 291 290 290 290 290 289 288 287 285 285 285 285 285 285 285 285 285 285 285 285 286 286 287 287 288 289 290
291 291 289 290 288 289 289 287 288 281 275 278 284 284 287 294 293 292 291 290 290 289 289 287 283 282 283 283 283 284 284 284 284 284 284 284 284 285 285 286 286 287 288 289
287 290 289 288 285 283 281 281 286 280 278 280 287 287 287 292 291 290 287 290 290 289 287 286 283 282 282 281 281 282 281 282 283 283 283 284 283 283 284 284 285 286 286 287
280 282 287 287 287 282 285 284 287 288 284 287 288 280 287 291 291 290 289 289 288 288 287 286 283 281 280 280 280 280 281 282 282 282 283 283 283 283 283 283 284 284 285 286
280 282 287 287 287 284 288 279 286 288 271 279 283 286 288 291 288 287 287 288 287 288 287 285 281 280 279 279 279 281 282 282 282 282 282 282 282 282 282 282 283 284 285 286
279 283 286 287 285 285 286 286 283 280 285 279 282 283 285 285 283 286 286 287 287 287 287 282 281 280 280 280 283 280 281 282 282 281 281 280 279 280 280 281 282 283 284 285
273 277 282 282 276 278 281 281 285 283 284 286 280 280 278 277 277 282 284 288 287 286 283 281 280 280 280 280 283 279 282 281 280 279 278 278 277 277 278 279 281 282 282 283
282 282 277 280 281 279 280 281 286 285 281 277 277 283 273 274 278 283 287 287 286 284 281 280 280 279 279 280 279 280 281 280 277 276 276 277 277 276 276 277 278 279 281 282
281 282 282 279 278 276 275 276 279 277 278 278 279 280 277 284 285 287 287 287 285 282 281 280 280 279 279 279 280 280 280 279 277 276 276 276 276 276 276 277 277 278 280 281
286 274 279 281 280 271 275 277 275 275 276 276 279 283 284 284 285 286 286 286 284 281 280 280 280 279 279 279 279 279 279 277 276 276 276 277 277 277 278 278 279 279 279 280
278 278 271 276 280 269 276 279 278 275 278 284 281 281 283 283 285 284 285 285 282 280 281 280 280 279 278 279 280 280 278 277 276 276 277 278 279 280 280 280 280 279 279 280
275 280 272 279 269 268 272 278 277 280 282 282 283 282 281 282 284 285 285 284 282 280 280 280 280 279 278 279 280 280 278 277 277 277 277 278 281 283 284 283 282 279 281 282
280 279 276 276 273 272 279 279 275 275 275 281 283 283 279 282 283 284 284 284 283 281 280 280 279 279 278 279 279 279 279 278 278 278 279 280 284 289 291 287 284 281 283 281
274 278 278 277 275 277 281 274 275 277 277 276 279 282 280 281 284 285 286 285 284 281 280 280 279 279 279 280 281 281 281 280 279 279 280 282 286 290 292 290 287 286 284 284
279 279 280 278 269 278 282 283 284 282 282 280 281 281 280 284 284 285 286 286 284 281 280 280 279 279 280 281 281 281 280 282 280 279 280 282 284 287 291 291 290 289 288 287
276 274 282 273 282 278 279 281 283 279 280 283 278 275 273 283 284 281 286 285 285 281 281 280 280 280 280 281 281 281 280 282 281 279 279 282 283 285 289 291 291 290 290 291
272 269 280 276 285 281 278 285 285 282 282 284 285 285 284 282 283 285 285 285 285 281 281 280 280 280 280 281 281 281 281 280 283 282 282 283 284 284 285 289 292 292 292 293
277 274 275 275 276 281 283 287 288 285 289 287 286 285 285 284 284 284 285 285 285 283 282 281 281 280 281 281 281 281 281 281 282 285 285 284 283 284 285 286 288 291 294 295
279 280 279 282 281 281 287 285 286 287 288 286 285 284 282 282 283 283 283 284 284 283 282 281 280 280 280 281 281 281 281 282 282 282 285 286 286 283 284 286 286 287 289 290
282 282 283 282 284 283 286 286 286 287 287 286 284 283 282 281 281 281 282 283 284 284 283 281 280 281 280 281 281 281 281 281 282 282 281 284 286 286 285 282 285 286 287 288
283 284 283 284 285 285 286 287 286 287 285 284 283 282 281 280 280 280 281 282 283 284 283 281 280 280 280 280 281 281 281 282 282 282 283 282 283 286 285 284 282 284 286 287
285 285 283 284 285 285 285 287 286 285 284 282 281 280 280 280 280 280 281 281 281 283 283 281 280 280 280 280 280 281 281 282 282 282 282 282 282 282 284 287 286 286 286 286
Wind_Speed
3 3 10 12 5 7 12 17 17 20 20 11 18 20 25 27 28 25 25 22 22 1 15 14 12 8 6 6 10 15 20 23 25 27 28 31 34 36 38 38 37 35 34 33
4 12 11 6 6 12 11 16 15 17 13 14 18 25 24 18 16 25 22 3 12 13 14 12 9 10 13 23 25 25 26 28 30 30 32 34 38 42 43 43 42 39 36 35
4 16 12 5 13 17 12 13 11 16 21 14 8 12 13 13 12 23 23 22 20 21 24 24 22 22 25 29 31 32 33 33 34 34 35 36 38 41 45 47 47 46 41 38
8 4 7 12 13 15 15 9 11 16 13 10 4 5 7 10 8 12 15 20 22 21 21 23 28 32 31 32 32 33 33 34 35 33 34 34 36 39 43 41 42 42 40 42
7 11 14 10 10 14 7 13 11 18 12 4 7 3 7 12 7 7 6 14 18 22 22 28 26 26 28 30 31 31 31 32 32 33 33 35 39 40 39 40 42 42 43 43
4 18 3 3 6 7 10 9 15 5 3 3 5 4 5 2 3 2 2 16 17 24 25 24 25 28 32 33 33 32 32 32 31 31 32 35 37 38 38 42 41 42 39 42
6 4 5 6 13 6 8 7 5 5 4 5 7 6 7 2 4 2 4 19 22 23 25 25 31 33 34 35 35 35 34 35 33 33 33 35 38 40 43 45 46 42 41 43
3 8 5 13 11 5 13 5 1 5 2 8 8 4 5 5 3 6 17 21 24 26 29 29 34 35 35 35 35 36 38 39 36 35 37 37 38 40 42 43 46 47 45 46
5 6 16 16 8 2 4 3 5 4 1 3 3 6 12 5 6 10 19 23 24 27 31 34 36 36 36 36 35 36 37 38 38 38 38 40 41 42 44 43 43 46 46 47
5 11 7 4 8 3 3 6 5 3 4 5 5 5 5 10 9 17 16 20 25 30 34 37 38 38 36 36 35 37 38 39 39 40 40 41 42 42 43 43 45 46 47 46
4 3 9 6 1 6 6 4 3 2 1 2 4 5 7 6 6 12 14 24 26 31 35 35 36 36 37 37 39 42 43 42 42 39 38 40 41 41 42 44 46 46 45 43
4 4 4 11 10 5 4 5 2 2 6 2 2 7 3 5 8 8 17 24 26 31 34 36 38 40 40 41 44 44 47 46 42 40 38 37 39 39 41 44 44 42 43 42
3 3 5 10 6 6 3 4 3 1 1 6 3 6 4 16 15 21 18 25 31 32 34 38 42 44 45 44 44 45 49 44 39 36 35 37 39 39 41 42 40 40 42 40
2 1 7 7 11 2 5 9 1 5 1 3 7 11 18 15 15 20 26 29 31 32 35 39 43 46 47 48 48 49 49 44 38 34 33 35 37 37 39 40 41 41 42 41
5 5 4 9 17 4 8 17 11 7 8 4 9 7 16 13 15 18 25 27 30 34 37 40 44 47 49 50 51 51 49 43 39 37 35 34 33 32 33 36 38 39 38 41
1 4 3 8 3 4 5 9 9 11 6 7 10 12 9 16 22 19 20 26 30 33 35 39 43 47 49 50 52 51 49 44 41 39 42 42 37 29 28 32 35 38 37 40
3 2 2 6 3 4 3 6 5 4 3 4 3 7 6 13 14 19 23 23 29 29 32 37 41 45 48 49 51 51 51 45 41 42 45 45 36 20 18 22 28 33 35 36
4 4 3 5 5 3 6 2 5 6 7 6 5 9 8 14 26 29 9 26 31 28 31 35 38 43 46 48 50 49 50 45 42 45 49 50 37 15 3 13 18 23 29 34
7 3 2 1 3 6 5 4 2 3 6 6 5 8 11 23 17 13 13 34 32 25 27 31 34 39 43 46 48 49 51 48 45 47 50 51 45 28 1 7 13 18 22 26
4 2 2 1 3 5 7 5 5 4 4 5 5 5 5 16 8 5 34 32 28 22 23 29 33 36 41 44 46 49 50 50 49 46 47 49 47 38 25 11 13 16 19 21
2 3 8 6 7 7 7 5 10 4 6 8 5 14 14 3 8 29 29 29 25 22 24 26 29 33 38 42 45 48 48 49 49 47 48 49 51 48 38 30 25 22 21 23
6 4 4 1 0 7 7 5 3 7 21 15 18 18 16 21 27 27 26 27 25 23 23 24 28 31 35 40 43 46 48 46 48 47 48 52 53 54 49 43 37 32 28 22
2 7 4 7 6 7 9 19 21 17 17 14 19 16 18 24 28 28 27 24 24 22 22 22 25 28 31 36 40 43 44 45 46 47 49 49 52 56 54 53 49 44 36 32
5 8 5 3 7 13 24 27 23 14 10 19 16 17 21 23 24 26 25 23 21 21 20 20 22 24 28 32 35 37 41 42 45 46 48 49 49 51 54 54 52 51 44 37
6 5 5 8 15 17 20 9 6 9 15 16 16 20 20 20 22 22 24 23 20 18 18 17 20 20 24 27 30 34 37 40 43 44 45 47 47 45 47 50 52 53 54 46
12 12 5 8 18 14 15 9 11 17 16 16 22 22 20 19 21 23 25 22 20 16 14 14 15 17 18 22 25 29 33 37 39 41 43 43 43 44 45 43 44 45 50 52
Wind_Direction
299 303 273 281 255 270 294 297 301 300 308 309 299 302 295 293 296 286 279 275 284 64 90 95 91 74 44 356 326 312 303 299 296 293 288 279 275 270 268 267 268 265 264 263
355 265 275 294 296 306 302 292 293 301 305 309 305 294 291 297 287 286 282 154 89 69 44 31 9 342 323 322 319 311 304 297 292 288 283 279 277 273 271 269 267 264 261 259
185 274 306 288 320 305 302 293 296 308 312 299 305 296 308 318 358 40 62 82 53 28 8 349 338 330 323 319 315 308 302 295 290 285 282 279 276 272 270 267 267 265 260 254
267 279 327 318 308 306 301 296 308 311 322 304 97 282 307 335 351 29 35 42 23 6 354 343 338 332 322 313 308 303 297 291 286 283 279 275 273 272 269 271 269 266 262 256
261 312 307 319 300 319 289 314 302 309 290 30 339 61 281 328 59 24 349 0 0 358 347 339 333 329 327 324 318 312 304 296 290 284 277 273 269 268 269 269 268 266 263 256
297 284 203 223 355 318 329 322 323 22 89 23 246 104 286 337 282 177 339 345 345 341 335 334 335 331 326 323 320 316 309 302 296 288 280 272 267 266 264 263 262 261 261 261
322 339 335 44 341 331 359 355 304 344 357 226 290 326 247 209 243 189 286 329 334 334 334 333 333 332 327 323 320 318 312 306 300 292 284 277 272 267 263 260 260 258 258 255
9 328 10 335 309 266 314 184 227 289 263 289 306 245 267 211 200 343 326 333 329 338 337 331 335 332 328 326 321 319 314 308 303 296 290 282 275 270 265 262 259 258 256 254
327 259 309 293 336 67 343 19 234 259 67 42 270 289 304 181 326 347 334 334 330 331 336 336 336 334 333 329 326 321 316 309 304 298 291 284 278 273 268 263 259 256 255 254
260 297 284 289 352 302 2 278 336 350 314 303 292 284 235 316 313 330 332 332 325 334 337 338 337 336 335 333 331 327 322 316 307 300 292 286 281 275 271 266 258 254 252 249
152 171 283 359 231 257 333 328 296 177 120 319 321 267 226 253 261 310 312 326 326 332 335 337 337 339 338 337 335 332 328 321 311 303 296 289 282 276 270 265 259 253 250 245
230 249 272 259 288 205 199 218 219 29 308 260 182 275 213 222 288 288 308 321 327 333 338 340 343 345 341 340 337 333 331 326 318 309 301 290 282 275 268 263 259 255 248 241
241 252 311 333 347 358 54 299 77 106 108 227 168 268 289 323 320 324 321 323 332 336 341 346 348 345 345 341 337 333 332 330 322 314 305 296 286 276 267 262 255 248 243 237
95 82 188 243 247 154 317 284 233 156 194 237 236 284 300 310 317 327 326 326 332 338 343 348 346 347 345 343 339 338 335 334 329 322 313 301 290 278 268 260 255 248 241 236
121 246 187 249 257 188 258 268 271 188 220 230 278 281 291 292 309 311 312 326 335 340 344 348 345 346 346 345 345 343 343 342 339 331 324 319 311 294 272 254 244 239 233 226
271 257 133 287 346 168 253 263 249 245 254 244 264 276 252 284 308 319 323 333 336 336 341 345 345 347 348 348 347 348 349 350 347 344 340 334 326 307 271 247 235 227 226 222
197 214 34 271 314 336 339 236 224 262 226 194 252 248 312 313 320 320 320 328 335 332 337 343 346 346 349 351 351 352 357 358 358 0 355 353 351 325 261 230 222 220 218 213
177 157 155 265 350 2 244 243 186 213 255 212 269 277 273 280 306 313 305 331 336 334 338 344 346 347 352 358 358 1 5 7 9 13 8 11 16 12 342 200 206 210 208 207
179 148 263 220 199 287 318 275 207 160 280 197 255 294 294 323 317 307 330 337 333 330 335 342 348 349 354 1 3 8 10 12 19 22 17 19 24 38 169 169 180 187 193 200
93 139 169 75 244 234 228 259 184 112 290 219 208 265 285 328 336 286 329 332 331 332 336 346 351 352 358 5 9 13 14 15 23 25 24 33 32 39 72 150 181 183 189 195
336 356 215 240 258 273 233 247 138 85 248 284 264 311 300 267 277 309 330 334 332 333 336 348 353 358 0 5 13 17 18 20 25 34 41 47 44 39 51 86 128 164 178 183
178 164 218 109 121 276 199 136 176 231 298 296 310 315 310 313 317 323 332 337 334 335 335 346 353 1 4 7 14 19 20 24 30 34 46 49 49 44 44 61 82 109 134 158
294 193 198 186 218 228 222 265 284 291 273 297 303 309 314 314 315 315 321 330 335 333 331 339 350 358 7 11 13 19 22 24 31 36 43 49 56 54 47 49 53 67 89 102
251 189 223 45 250 254 277 285 277 274 266 303 299 304 316 316 318 315 316 319 329 331 329 331 345 357 6 13 15 18 23 26 32 36 40 48 50 57 58 50 50 50 58 69
203 175 209 252 276 278 279 302 239 253 299 302 302 312 317 315 317 318 317 321 320 323 325 325 334 353 4 11 15 18 23 26 33 37 41 43 50 55 59 61 57 56 57 59
223 237 208 244 259 245 266 238 275 300 301 303 311 314 315 314 312 315 314 315 319 312 313 316 323 339 0 7 15 18 22 26 30 38 40 44 47 50 57 63 64 70 73 67